Regional Weather Roundup
Issued by NWS

Home | Current Version | Previous Version | Graphics & Text | Print | Product List | Glossary On
Versions: 1 2 3 4 5 6 7 8 9 10 11 12 13 14 15 16 17 18 19 20 21 22 23 24 25 26 27 28 29 30 31 32 33 34 35 36 37 38 39 40 41 42 43 44 45 46 47 48 49 50
000
ASUS43 KMKX 262317
RWRWI

WISCONSIN REGIONAL WEATHER ROUNDUP
NATIONAL WEATHER SERVICE MILWAUKEE/SULLIVAN WI
600 PM CDT TUE MAY 26 2015

NOTE: "FAIR" INDICATES FEW OR NO CLOUDS BELOW 12,000 FEET WITH NO
SIGNIFICANT WEATHER AND/OR OBSTRUCTIONS TO VISIBILITY.

WIZ001-002-006>008-014>016-023>028-270000-
NORTHWEST WISCONSIN

CITY           SKY/WX    TMP DP  RH WIND       PRES   REMARKS
SUPERIOR ARPT  CLOUDY    54  51  91 NE7       29.81S
ASHLAND        CLOUDY    54  54 100 N7        29.78F
HAYWARD        LGT RAIN  56  53  90 N7        29.76F
SIREN          LGT RAIN  57  56  95 N5        29.78S
CUMBERLAND     RAIN      55  54  94 N10       29.77R
RICE LAKE      RAIN      58  56  92 NW8       29.76R
CHETEK         RAIN      60  59  98 N10       29.74R
LADYSMITH      LGT RAIN  61  59  94 N12       29.74S
EAU CLAIRE     RAIN      61  57  88 NW9       29.69S FOG
MENOMONIE      RAIN      63  61  94 NW5       29.73S
NEW RICHMOND   RAIN      58  58 100 N8        29.77S
OSCEOLA        RAIN      57  57 100 NW7       29.80S
$$

WIZ003>005-009-010-017-018-270000-
NORTH CENTRAL WISCONSIN

CITY           SKY/WX    TMP DP  RH WIND       PRES   REMARKS
MANITOWISH WTR RAIN      57  57 100 NE9       29.74F
ARBOR VITAE    LGT RAIN  62  60  94 NE9       29.72F
WOODRUFF       LGT RAIN  62  60  94 NE9       29.72F
RHINELANDER    CLOUDY    65  62  90 N6        29.70F
EAGLE RIVER    CLOUDY    62  61  96 NE8       29.72F
LAND O LAKES   LGT RAIN  60  59  96 N7        29.74F
PHILLIPS       DRIZZLE   62  61  97 N12       29.71S
TOMAHAWK       PTSUNNY   64  61  88 N5        29.70F
MEDFORD        CLOUDY    65  59  83 N6        29.68S
MERRILL        DRIZZLE   64  62  96 NE8       29.68F
$$

WIZ029-030-035-036-043>047-270000-
CENTRAL WISCONSIN

CITY           SKY/WX    TMP DP  RH WIND       PRES   REMARKS
WAUSAU         CLOUDY    65  62  90 NE7       29.63F
MOSINEE        RAIN      63  63 100 N3        29.66F
MARSHFIELD     CLOUDY    64  60  87 NE13      29.64F
STEVENS POINT  RAIN      64  62  95 NE3       29.64F
WAUPACA        CLOUDY    68  68  98 CALM      29.63F
WAUTOMA        CLOUDY    72  70  94 W3        29.62F
WISC RAPIDS    PTSUNNY   67  63  87 NE7       29.64F
CAMP DOUGLAS   PTSUNNY   68  68 100 VRB3      29.61F
$$

WIZ011>013-019>022-031-037>040-048>050-270000-
NORTHEAST WISCONSIN

CITY           SKY/WX    TMP DP  RH WIND       PRES   REMARKS
ANTIGO         DRIZZLE   64  62  96 NE12      29.68F
SHAWANO        RAIN      66  64  94 E8G17     29.65F
OCONTO         CLOUDY    64  64 100 SE9       29.66F
STURGEON BAY   CLOUDY    64  61  88 SE13      29.72S
GREEN BAY      MOSUNNY   71  65  81 SE10      29.64F
MANITOWOC      FOG       59  59 100 S14       29.69F VSB<1/4
APPLETON       PTSUNNY   72  66  83 S10G18    29.64S
CLINTONVILLE   CLOUDY    64  63  94 E6        29.63F
OSHKOSH        MOSUNNY   75  62  64 SW17G24   29.63F
$$

WIZ032>034-041-042-053>061-270000-
SOUTHWEST WISCONSIN

CITY           SKY/WX    TMP DP  RH WIND       PRES   REMARKS
LA CROSSE      RAIN      63  60  90 W16G26    29.65R FOG
SPARTA         RAIN      66  63  90 E5        29.62F
VIROQUA        CLOUDY    63  63 100 W16G24    29.66R
BOSCOBEL       CLOUDY    67  60  78 W16G24    29.70R
PRAIRIE DU CHI CLOUDY    65  61  86 W13G23    29.71R
PLATTEVILLE    CLOUDY    67  62  84 W21G29    29.73R
$$

WIZ056-057-062-063-064-067-068-270000-
SOUTH CENTRAL WISCONSIN

CITY           SKY/WX    TMP DP  RH WIND       PRES   REMARKS
REEDSBURG      PTSUNNY   70  64  81 SW10      29.62F
BARABOO/DELLS  CLOUDY    69  63  81 SW7       29.63S
LONE ROCK      CLOUDY    68  62  81 SW16G31   29.66R
MINERAL POINT  CLOUDY    66  61  82 W20G31    29.70R
MADISON        PTSUNNY   70  61  73 SW16G24   29.66R
MIDDLETON      CLOUDY    70  62  75 SW18G31   29.67R
WATERTOWN      LGT RAIN  70  69  97 SW14      29.66R
MONROE         PTSUNNY   70  59  68 SW25G33   29.72R
JANESVILLE     MOSUNNY   73  61  64 W21G32    29.70S
$$

WIZ051-052-058>065-066-070>072-270000-
SOUTHEAST WISCONSIN

CITY           SKY/WX    TMP DP  RH WIND       PRES   REMARKS
MILWAUKEE      MOSUNNY   73  59  61 S24G31    29.70S
WAUKESHA       MOSUNNY   72  57  60 S21G33    29.71S
MILWAUKEE/TIMM MOSUNNY   75  57  53 SW18G26   29.69F
RACINE         MOSUNNY   72  64  76 SW13      29.73S
BURLINGTON     MOSUNNY   70  61  72 SW17G26   29.72R
KENOSHA        MOSUNNY   73  62  68 SW15G25   29.72S
FOND DU LAC    SUNNY     74  62  66 S12G23    29.64F
SHEBOYGAN      CLOUDY    63  61  93 S8        29.67F FOG
WEST BEND      MOSUNNY   73  61  64 S10G23    29.67F
JUNEAU         PTSUNNY   72  62  70 S14G20    29.67S
$$

LSZ147-162-270000-
LAKE SUPERIOR

STATION/POSITION TIME  TEMP    WIND        PRES    WAVE
                       AIR SEA DIR/SP/G            HT/PER
                 (UTC) (F)     (DEG/KT/KT) (MB)    (FT/S)
W MID LAKE BUOY  2150   39 37  110/  4/  4   N/A     1
DEVILS ISLAND    2200   44      40/  4/  5   N/A
PORT WING        2240   45      20/  9/ 11   N/A
SAXON HARBOR     2240   48        CALM     1081.0F
$$

LMZ867-665-643>646-270000-
LAKE MICHIGAN

STATION/POSITION TIME  TEMP    WIND        PRES    WAVE
                       AIR SEA DIR/SP/G            HT/PER
                 (UTC) (F)     (DEG/KT/KT) (MB)    (FT/S)
CHAMBERS ISLAND  2200   57     330/  1/  5 1068.0F
N MID LAKE BUOY  2150   46 37  190/  2/  4 1080.0F   2/ 5
SISTER BAY       2248   64     140/  9/ 14   N/A
ALGOMA LAKESHORE 2108             CALM       N/A
KEWAUNEE LAKESHO 2200   53     190/  5/  8 1055.0F
SHEBOYGAN LAKESH 2200   52     170/ 15/ 15 1057.0F
PORT WASHINGTON  2140   54     170/  3/  6 1064.0F
ATWATER BUOY     2200      47  200/ 17/ 19 1070.0F
MILWAUKEE LAKESH 2200          210/ 15/ 21   N/A
S MID LAKE BUOY  2150   47 38  180/ 14/ 16 1082.0F   2/ 3
KENOSHA   LAKESH 2200          210/ 15/ 23 1064.0F
$$

TC  - TEMPERATURE IN CELSIUS
VSB - VISIBILITY IN STATUTE MILES
WCI - WIND CHILL INDEX
HX  - HEAT INDEX



USA.gov is the U.S. government's official web portal to all federal, state and local government web resources and services.